I2476 LICA-LICR

Flight info

Callsign I2476
Flight time N/A
Altitude 15000
Route PEROS DEDRA LICR
Aircraft A320/M-S/7123

Departure

Time N/A
Airport Lamezia Terme Sant'Eufemia International Airport (LICA)

Arrival

Time 2026-04-26 18:32
Airport Reggio Calabria Airport (LICR)
Time Latitude Longitude Altitude Speed Heading
2026-04-26 18:03 38.90504 16.25529 0 ft 0 kts 145°
2026-04-26 18:03 38.90404 16.25398 0 ft 0 kts 278°
2026-04-26 18:05 38.90433 16.25146 0 ft 66 kts 278°
2026-04-26 18:06 38.90532 16.24305 0 ft 132 kts 278°
2026-04-26 18:06 38.90683 16.23025 0 ft 174 kts 277°
2026-04-26 18:06 38.90807 16.21543 0 ft 186 kts 267°
2026-04-26 18:06 38.90298 16.20069 0 ft 192 kts 241°
2026-04-26 18:07 38.89547 16.18659 0 ft 187 kts 238°
2026-04-26 18:07 38.88812 16.17428 0 ft 186 kts 236°
2026-04-26 18:07 38.88029 16.16200 0 ft 190 kts 234°
2026-04-26 18:07 38.87477 16.15374 0 ft 192 kts 234°
2026-04-26 18:08 38.86332 16.13716 0 ft 194 kts 233°
2026-04-26 18:08 38.85482 16.12516 0 ft 195 kts 232°
2026-04-26 18:08 38.84587 16.11264 0 ft 194 kts 232°
2026-04-26 18:08 38.83700 16.10025 0 ft 193 kts 232°
2026-04-26 18:09 38.82809 16.08782 0 ft 192 kts 232°
2026-04-26 18:09 38.81912 16.07526 0 ft 191 kts 233°
2026-04-26 18:09 38.81022 16.06273 0 ft 194 kts 232°
2026-04-26 18:09 38.80120 16.05005 0 ft 200 kts 233°
2026-04-26 18:10 38.79201 16.03711 0 ft 196 kts 232°
2026-04-26 18:10 38.78284 16.02419 0 ft 203 kts 232°
2026-04-26 18:10 38.77351 16.01111 0 ft 196 kts 232°
2026-04-26 18:10 38.76367 15.99716 0 ft 221 kts 232°
2026-04-26 18:11 38.75342 15.98273 0 ft 223 kts 232°
2026-04-26 18:11 38.74304 15.96815 0 ft 225 kts 232°
2026-04-26 18:11 38.73266 15.95362 0 ft 229 kts 232°
2026-04-26 18:11 38.72189 15.93854 0 ft 232 kts 232°
2026-04-26 18:12 38.71093 15.92322 0 ft 235 kts 232°
2026-04-26 18:12 38.70023 15.90826 0 ft 237 kts 232°
2026-04-26 18:12 38.68933 15.89300 0 ft 246 kts 232°
2026-04-26 18:12 38.67749 15.87639 0 ft 250 kts 231°
2026-04-26 18:13 38.66599 15.86029 0 ft 256 kts 231°
2026-04-26 18:13 38.65355 15.84369 0 ft 266 kts 220°
2026-04-26 18:13 38.63604 15.83329 0 ft 299 kts 202°
2026-04-26 18:13 38.62260 15.82808 0 ft 318 kts 200°
2026-04-26 18:14 38.59327 15.81779 0 ft 350 kts 199°
2026-04-26 18:14 38.56927 15.80978 0 ft 370 kts 198°
2026-04-26 18:14 38.54440 15.80169 0 ft 379 kts 198°
2026-04-26 18:14 38.51884 15.79354 0 ft 377 kts 198°
2026-04-26 18:15 38.49385 15.78565 0 ft 377 kts 198°
2026-04-26 18:15 38.46846 15.77765 0 ft 378 kts 198°
2026-04-26 18:15 38.44310 15.76966 0 ft 378 kts 198°
2026-04-26 18:15 38.41776 15.76166 0 ft 379 kts 198°
2026-04-26 18:16 38.39265 15.75371 0 ft 376 kts 198°
2026-04-26 18:16 38.34517 15.73868 0 ft 367 kts 198°
2026-04-26 18:16 38.32546 15.73242 0 ft 364 kts 198°
2026-04-26 18:17 38.30139 15.72475 0 ft 360 kts 198°
2026-04-26 18:17 38.27836 15.71739 0 ft 357 kts 198°
2026-04-26 18:17 38.25470 15.70978 0 ft 354 kts 198°
2026-04-26 18:17 38.23147 15.70231 0 ft 351 kts 198°
2026-04-26 18:18 38.20904 15.69515 0 ft 327 kts 199°
2026-04-26 18:18 38.18799 15.68841 0 ft 305 kts 199°
2026-04-26 18:18 38.16867 15.68218 0 ft 288 kts 199°
2026-04-26 18:18 38.15077 15.67632 0 ft 282 kts 200°
2026-04-26 18:19 38.13226 15.67016 0 ft 281 kts 200°
2026-04-26 18:19 38.11381 15.66410 0 ft 280 kts 200°
2026-04-26 18:19 38.09498 15.65792 0 ft 278 kts 200°
2026-04-26 18:19 38.07632 15.65185 0 ft 277 kts 200°
2026-04-26 18:20 38.05760 15.64640 0 ft 276 kts 190°
2026-04-26 18:20 38.03928 15.65052 0 ft 275 kts 164°
2026-04-26 18:20 38.02216 15.65917 0 ft 260 kts 164°
2026-04-26 18:20 38.01674 15.66195 0 ft 257 kts 164°
2026-04-26 18:21 37.98946 15.67601 0 ft 250 kts 163°
2026-04-26 18:21 37.97419 15.68410 0 ft 233 kts 163°
2026-04-26 18:21 37.96459 15.68927 0 ft 222 kts 163°
2026-04-26 18:21 37.94692 15.69903 0 ft 207 kts 163°
2026-04-26 18:22 37.93676 15.70472 0 ft 211 kts 163°
2026-04-26 18:22 37.92739 15.70992 0 ft 217 kts 163°
2026-04-26 18:22 37.91902 15.71452 0 ft 219 kts 163°
2026-04-26 18:22 37.90234 15.72377 0 ft 208 kts 163°
2026-04-26 18:23 37.89049 15.73044 0 ft 206 kts 163°
2026-04-26 18:23 37.87980 15.73642 0 ft 211 kts 163°
2026-04-26 18:23 37.87122 15.74118 0 ft 213 kts 163°
2026-04-26 18:23 37.85815 15.74715 0 ft 201 kts 187°
2026-04-26 18:24 37.84680 15.74343 0 ft 186 kts 231°
2026-04-26 18:24 37.84219 15.73316 0 ft 180 kts 271°
2026-04-26 18:24 37.84492 15.72042 0 ft 172 kts 294°
2026-04-26 18:24 37.84904 15.71005 0 ft 161 kts 291°
2026-04-26 18:25 37.85290 15.69892 0 ft 164 kts 289°
2026-04-26 18:25 37.85665 15.68693 0 ft 159 kts 288°
2026-04-26 18:25 37.86030 15.67402 0 ft 164 kts 286°
2026-04-26 18:25 37.86428 15.66115 0 ft 179 kts 289°
2026-04-26 18:26 37.86743 15.64762 0 ft 179 kts 276°
2026-04-26 18:26 37.86753 15.63255 0 ft 180 kts 265°
2026-04-26 18:26 37.86595 15.61972 0 ft 179 kts 260°
2026-04-26 18:26 37.86433 15.60678 0 ft 179 kts 273°
2026-04-26 18:27 37.87033 15.59462 0 ft 174 kts 326°
2026-04-26 18:27 37.88159 15.59258 0 ft 191 kts 353°
2026-04-26 18:27 37.89404 15.59420 0 ft 193 kts
2026-04-26 18:27 37.90647 15.59752 0 ft 197 kts
2026-04-26 18:28 37.91939 15.60298 0 ft 200 kts 12°
2026-04-26 18:28 37.93186 15.60897 0 ft 200 kts 13°
2026-04-26 18:28 37.94441 15.61518 0 ft 200 kts 13°
2026-04-26 18:28 37.95705 15.62138 0 ft 200 kts 13°
2026-04-26 18:29 37.96932 15.62737 0 ft 199 kts 13°
2026-04-26 18:29 37.98037 15.63274 0 ft 199 kts 13°
2026-04-26 18:29 37.99311 15.63896 0 ft 188 kts 13°
2026-04-26 18:29 38.00506 15.64482 0 ft 174 kts 13°
2026-04-26 18:30 38.01569 15.65026 0 ft 160 kts
2026-04-26 18:30 38.02621 15.65445 0 ft 162 kts
2026-04-26 18:30 38.03622 15.65945 0 ft 159 kts 14°
2026-04-26 18:30 38.04540 15.66365 0 ft 140 kts 356°
2026-04-26 18:31 38.05321 15.66200 0 ft 117 kts 329°
2026-04-26 18:31 38.05954 15.65883 0 ft 117 kts 326°
2026-04-26 18:31 38.06610 15.65507 0 ft 125 kts 329°
2026-04-26 18:31 38.07125 15.65136 0 ft 54 kts 324°
2026-04-26 18:32 38.07260 15.65101 0 ft 14 kts 17°
2026-04-26 18:32 38.07316 15.65201 0 ft 14 kts 66°
2026-04-26 18:32 38.07348 15.65294 0 ft 10 kts 66°
2026-04-26 18:32 38.07359 15.65326 0 ft 0 kts 66°